Weather History for Poughkeepsie, NY

Change the Weather History Date:

Thursday, July 4, 2013

  Actual Average Record
Temperature  
Mean Temperature 81 °F 72 °F  
Max Temperature 90 °F 84 °F 99 °F (1949)
Min Temperature 71 °F 60 °F 43 °F (1986)
Degree Days  
Heating Degree Days 0 0  
Month to date heating degree days 0 0  
Since 1 June heating degree days 31 49  
Since 1 July heating degree days 0 0  
Cooling Degree Days 16 0  
Month to date cooling degree days 54 28  
Year to date cooling degree days 261 191  
Since 1 June cooling degree days 208 155  
Growing Degree Days 30 (Base 50)    
Moisture  
Dew Point 71 °F    
Average Humidity 76    
Maximum Humidity 100    
Minimum Humidity 52    
Precipitation  
Precipitation 0.00 in 0.13 in 0.84 in (2007)
Month to date precipitation 1.10 0.54  
Year to date precipitation 21.57 22.47  
Sea Level Pressure  
Sea Level Pressure 30.17 in    
Wind  
Wind Speed 5 mph (SW)    
Max Wind Speed 15 mph    
Max Gust Speed 22 mph    
Visibility 9 miles    
Events      
T = Trace of Precipitation, MM = Missing Value Source: NWS Daily Summary

Daily Weather History Graph

Daily Weather History Graph

Search for Another Location

Airport:

Trip Planner

Search our weather history database for the weather conditions in past years. The results will help you decide how hot, cold, wet, or windy it might be!

Date:

Astronomy

Jul. 04, 2013 Rise Set
Actual Time 5:26 AM EDT 8:32 PM EDT
Civil Twilight 4:52 AM EDT 9:06 PM EDT
Nautical Twilight 4:09 AM EDT 9:49 PM EDT
Astronomical Twilight 3:18 AM EDT 10:41 PM EDT
Moon 2:42 AM EDT (7/4) 5:34 PM EDT (7/4)
Length of Visible Light 16h 13m
Length of Day
15h 06m
Waning Crescent, 11% of the Moon is Illuminated
Jul 4
Waning Crescent
Jul 8
New
Jul 15
First Quarter
Jul 22
Full
Jul 29
Last Quarter

Hourly Weather History & Observations

Time (EDT) Temp. Heat Index Dew Point Humidity Pressure Visibility Wind Dir Wind Speed Gust Speed Precip Events Conditions
12:53 AM 73.9 °F - 72.0 °F 93% 30.18 in 9.0 mi Calm Calm - N/A   Clear
1:53 AM 73.9 °F - 72.0 °F 93% 30.18 in 9.0 mi Calm Calm - N/A   Clear
2:53 AM 71.1 °F - 70.0 °F 96% 30.18 in 5.0 mi Calm Calm - N/A   Clear
3:53 AM 72.0 °F - 71.1 °F 97% 30.18 in 8.0 mi Calm Calm - N/A   Clear
4:49 AM 71.6 °F - 69.8 °F 94% 30.19 in 7.0 mi Calm Calm - N/A   Mostly Cloudy
4:53 AM 71.1 °F - 70.0 °F 96% 30.18 in 7.0 mi Calm Calm - N/A   Mostly Cloudy
5:53 AM 73.9 °F - 72.0 °F 93% 30.19 in 8.0 mi Calm Calm - N/A   Mostly Cloudy
6:07 AM 73.4 °F - 71.6 °F 94% 30.20 in 8.0 mi Calm Calm - N/A   Scattered Clouds
6:53 AM 75.9 °F - 73.0 °F 91% 30.20 in 7.0 mi Calm Calm - N/A   Mostly Cloudy
7:53 AM 78.1 °F - 73.0 °F 84% 30.22 in 9.0 mi WSW 11.5 mph - N/A   Overcast
8:53 AM 80.1 °F 84.2 °F 73.0 °F 79% 30.22 in 10.0 mi SW 8.1 mph - N/A   Overcast
9:16 AM 80.6 °F 84.6 °F 71.6 °F 74% 30.23 in 10.0 mi Variable 3.5 mph - N/A   Mostly Cloudy
9:53 AM 82.0 °F 86.7 °F 72.0 °F 71% 30.21 in 10.0 mi SW 6.9 mph - N/A   Mostly Cloudy
10:06 AM 82.4 °F 87.2 °F 71.6 °F 70% 30.22 in 10.0 mi SW 6.9 mph - N/A   Partly Cloudy
10:53 AM 84.0 °F 89.6 °F 72.0 °F 67% 30.21 in 10.0 mi Variable 3.5 mph - N/A   Mostly Cloudy
11:53 AM 86.0 °F 92.2 °F 72.0 °F 63% 30.19 in 10.0 mi WSW 10.4 mph 19.6 mph N/A   Partly Cloudy
12:53 PM 87.1 °F 92.8 °F 71.1 °F 59% 30.18 in 10.0 mi SSW 9.2 mph - N/A   Scattered Clouds
1:53 PM 88.0 °F 92.9 °F 70.0 °F 55% 30.17 in 10.0 mi SSW 10.4 mph 20.7 mph N/A   Partly Cloudy
2:53 PM 89.1 °F 94.1 °F 70.0 °F 53% 30.15 in 10.0 mi SW 9.2 mph 19.6 mph N/A   Clear
3:53 PM 90.0 °F 95.4 °F 70.0 °F 52% 30.13 in 10.0 mi WSW 12.7 mph - N/A   Clear
4:53 PM 90.0 °F 96.4 °F 71.1 °F 54% 30.12 in 10.0 mi SW 9.2 mph 16.1 mph N/A   Clear
5:53 PM 89.1 °F 95.0 °F 71.1 °F 55% 30.11 in 10.0 mi SW 8.1 mph 16.1 mph N/A   Partly Cloudy
6:53 PM 88.0 °F 94.7 °F 72.0 °F 59% 30.11 in 10.0 mi SW 8.1 mph - N/A   Clear
7:53 PM 86.0 °F 91.5 °F 71.1 °F 61% 30.12 in 10.0 mi SSW 4.6 mph - N/A   Clear
8:53 PM 84.0 °F 89.6 °F 72.0 °F 67% 30.13 in 10.0 mi SSW 3.5 mph - N/A   Clear
9:53 PM 82.0 °F 86.7 °F 72.0 °F 71% 30.14 in 9.0 mi Calm Calm - N/A   Clear
10:53 PM 81.0 °F 85.2 °F 72.0 °F 74% 30.15 in 10.0 mi Calm Calm - N/A   Clear
11:53 PM 80.1 °F 83.8 °F 72.0 °F 76% 30.17 in 10.0 mi Calm Calm - N/A   Clear